Warroad, MN

12:43 AM CDT on June 25, 2017 (GMT -0500)
Warroad International-Carlson

Weather History for KRRT - August, 2013

Change the Weather History Date:

Thursday, August 29, 2013

  Actual Average Record
Temperature  
Mean Temperature 72 °F -  
Max Temperature 77 °F 76 °F 98 °F (1984)
Min Temperature 66 °F 52 °F 38 °F (1986)
Cooling Degree Days 6    
Growing Degree Days 22 (Base 50)    
Moisture  
Dew Point 66 °F    
Average Humidity 86    
Maximum Humidity 94    
Minimum Humidity 78    
Precipitation  
Precipitation 0.20 in - - ()
Sea Level Pressure  
Sea Level Pressure 29.91 in    
Wind  
Wind Speed 5 mph (SE)    
Max Wind Speed 15 mph    
Max Gust Speed 25 mph    
Visibility 9 miles    
Events Rain , Thunderstorm    
Averages and records for this station are not official NWS values.
T = Trace of Precipitation, MM = Missing Value Source: NWS Daily Summary

Daily Weather History Graph

Daily Weather History Graph

Search for Another Location

Airport or City:

Trip Planner

Search our weather history database for the weather conditions in past years. The results will help you decide how hot, cold, wet, or windy it might be!

Date:

Astronomy

Aug. 29, 2013 Rise Set
Actual Time 6:34 AM CDT 8:09 PM CDT
Civil Twilight 6:01 AM CDT 8:42 PM CDT
Nautical Twilight 5:20 AM CDT 9:22 PM CDT
Astronomical Twilight 4:36 AM CDT 10:06 PM CDT
Moon 12:11 AM CDT (8/29) 3:54 PM CDT (8/29)
Length of Visible Light 14h 41m
Length of Day
13h 35m
Last Quarter, 38% of the Moon is Illuminated
Aug 29
Last Quarter
Sep 5
New
Sep 12
First Quarter
Sep 19
Full
Sep 26
Last Quarter

Hourly Weather History & Observations

Time (CDT) Temp. Dew Point Humidity Pressure Visibility Wind Dir Wind Speed Gust Speed Precip Events Conditions
12:14 AM 68.0 °F 64.4 °F 88% 30.00 in 10.0 mi ESE 3.5 mph - N/A   Clear
12:34 AM 68.0 °F 64.4 °F 88% 30.00 in 10.0 mi ESE 3.5 mph - N/A   Clear
12:54 AM 69.8 °F 64.4 °F 83% 29.99 in 10.0 mi SE 4.6 mph - N/A   Clear
1:14 AM 69.8 °F 66.2 °F 88% 29.99 in 10.0 mi SSE 3.5 mph - N/A   Clear
1:34 AM 68.0 °F 64.4 °F 88% 29.99 in 10.0 mi SSE 4.6 mph - N/A   Clear
1:53 AM 69.8 °F 64.4 °F 83% 29.98 in 10.0 mi SE 3.5 mph - N/A   Clear
2:14 AM 69.8 °F 66.2 °F 88% 29.98 in 10.0 mi South 4.6 mph - N/A   Clear
2:34 AM 69.8 °F 66.2 °F 88% 29.97 in 10.0 mi South 3.5 mph - N/A   Clear
2:54 AM 69.8 °F 66.2 °F 88% 29.97 in 10.0 mi South 5.8 mph - N/A   Clear
3:14 AM 69.8 °F 66.2 °F 88% 29.97 in 10.0 mi South 5.8 mph - N/A   Scattered Clouds
3:34 AM 71.6 °F 66.2 °F 83% 29.97 in 10.0 mi South 5.8 mph - N/A   Scattered Clouds
3:54 AM 71.6 °F 66.2 °F 83% 29.97 in 10.0 mi South 4.6 mph - N/A   Scattered Clouds
4:14 AM 69.8 °F 66.2 °F 88% 29.96 in 10.0 mi South 5.8 mph - N/A   Mostly Cloudy
4:34 AM 69.8 °F 66.2 °F 88% 29.95 in 10.0 mi South 4.6 mph - N/A   Clear
4:54 AM 71.6 °F 66.2 °F 83% 29.94 in 10.0 mi South 4.6 mph - N/A   Clear
5:14 AM 71.6 °F 66.2 °F 83% 29.94 in 10.0 mi South 3.5 mph - N/A   Clear
5:34 AM 69.8 °F 64.4 °F 83% 29.93 in 7.0 mi SSE 3.5 mph - N/A   Clear
5:54 AM 69.8 °F 64.4 °F 83% 29.94 in 7.0 mi Calm Calm - N/A   Clear
6:14 AM 68.0 °F 64.4 °F 88% 29.94 in 7.0 mi SSE 4.6 mph - N/A   Clear
6:34 AM 69.8 °F 64.4 °F 83% 29.92 in 7.0 mi ESE 4.6 mph - N/A   Clear
6:54 AM 69.8 °F 66.2 °F 88% 29.91 in 7.0 mi ESE 3.5 mph - N/A   Clear
7:14 AM 71.6 °F 66.2 °F 83% 29.91 in 7.0 mi ESE 5.8 mph - N/A   Clear
7:34 AM 71.6 °F 66.2 °F 83% 29.90 in 7.0 mi ESE 5.8 mph - N/A   Clear
7:54 AM 69.8 °F 66.2 °F 88% 29.89 in 7.0 mi ESE 6.9 mph - N/A   Clear
8:14 AM 69.8 °F 66.2 °F 88% 29.90 in 7.0 mi SE 4.6 mph - N/A   Clear
8:34 AM 69.8 °F 66.2 °F 88% 29.87 in 7.0 mi SE 8.1 mph - N/A   Clear
8:54 AM 69.8 °F 66.2 °F 88% 29.85 in 7.0 mi ESE 8.1 mph - N/A Thunderstorm Scattered Clouds
9:14 AM 69.8 °F 66.2 °F 88% 29.88 in 5.0 mi SSW 15.0 mph 25.3 mph N/A Rain , Thunderstorm Rain
9:34 AM 68.0 °F 64.4 °F 88% 29.89 in 4.0 mi South 9.2 mph - 0.07 in Rain , Thunderstorm Thunderstorms and Rain
9:54 AM 66.2 °F 62.6 °F 88% 29.88 in 7.0 mi SSE 6.9 mph - 0.12 in Rain , Thunderstorm Rain
10:14 AM 66.2 °F 62.6 °F 88% 29.87 in 10.0 mi SE 6.9 mph - 0.05 in Rain Rain
10:34 AM 66.2 °F 62.6 °F 88% 29.85 in 10.0 mi ESE 9.2 mph - 0.07 in Rain Light Rain
10:54 AM 66.2 °F 62.6 °F 88% 29.85 in 10.0 mi SE 6.9 mph - 0.08 in   Light Drizzle
11:14 AM 66.2 °F 62.6 °F 88% 29.86 in 10.0 mi ESE 6.9 mph - N/A   Scattered Clouds
11:33 AM 68.0 °F 64.4 °F 88% 29.88 in 10.0 mi Calm Calm - N/A   Scattered Clouds
11:54 AM 68.0 °F 64.4 °F 88% 29.88 in 7.0 mi SE 3.5 mph - N/A Rain Rain
12:14 PM 68.0 °F 64.4 °F 88% 29.87 in 10.0 mi SSE 3.5 mph - N/A Rain Light Rain
12:33 PM 69.8 °F 64.4 °F 83% 29.87 in 10.0 mi SSE 5.8 mph - N/A   Scattered Clouds
12:54 PM 69.8 °F 66.2 °F 88% 29.87 in 10.0 mi SE 8.1 mph - N/A   Mostly Cloudy
1:14 PM 69.8 °F 66.2 °F 88% 29.87 in 10.0 mi SSE 3.5 mph - N/A   Overcast
1:34 PM 71.6 °F 66.2 °F 83% 29.87 in 10.0 mi Calm Calm - N/A   Overcast
1:54 PM 71.6 °F 68.0 °F 88% 29.86 in 10.0 mi Calm Calm - N/A   Overcast
2:14 PM 73.4 °F 69.8 °F 88% 29.87 in 10.0 mi South 4.6 mph - N/A   Overcast
2:34 PM 71.6 °F 69.8 °F 94% 29.87 in 10.0 mi Calm Calm - N/A   Overcast
2:54 PM 73.4 °F 69.8 °F 88% 29.86 in 10.0 mi Calm Calm - N/A   Overcast
3:14 PM 73.4 °F 69.8 °F 88% 29.86 in 10.0 mi NW 3.5 mph - N/A   Overcast
3:34 PM 75.2 °F 69.8 °F 83% 29.86 in 10.0 mi Calm Calm - N/A   Overcast
3:54 PM 75.2 °F 69.8 °F 83% 29.87 in 10.0 mi NW 3.5 mph - N/A   Overcast
4:14 PM 75.2 °F 69.8 °F 83% 29.87 in 10.0 mi NNW 4.6 mph - N/A   Mostly Cloudy
4:34 PM 75.2 °F 69.8 °F 83% 29.87 in 10.0 mi NNW 8.1 mph - N/A   Mostly Cloudy
4:54 PM 75.2 °F 71.6 °F 89% 29.88 in 10.0 mi NW 5.8 mph - N/A   Scattered Clouds
5:14 PM 77.0 °F 71.6 °F 83% 29.87 in 10.0 mi NNW 6.9 mph - N/A   Scattered Clouds
5:34 PM 77.0 °F 69.8 °F 78% 29.87 in 10.0 mi NNW 9.2 mph - N/A   Scattered Clouds
5:54 PM 75.2 °F 69.8 °F 83% 29.87 in 10.0 mi North 8.1 mph - N/A   Scattered Clouds
6:14 PM 75.2 °F 69.8 °F 83% 29.88 in 10.0 mi North 11.5 mph 16.1 mph N/A   Mostly Cloudy
6:34 PM 75.2 °F 69.8 °F 83% 29.88 in 10.0 mi NNW 6.9 mph - N/A   Mostly Cloudy
6:54 PM 75.2 °F 69.8 °F 83% 29.88 in 10.0 mi NNW 5.8 mph - N/A   Scattered Clouds
7:14 PM 75.2 °F 69.8 °F 83% 29.89 in 10.0 mi NNW 8.1 mph - N/A   Clear
7:34 PM 73.4 °F 69.8 °F 88% 29.89 in 10.0 mi NNW 8.1 mph - N/A   Clear
7:53 PM 73.4 °F 69.8 °F 88% 29.90 in 10.0 mi NNW 6.9 mph - N/A   Clear
8:14 PM 71.6 °F 68.0 °F 88% 29.91 in 10.0 mi North 5.8 mph - N/A   Clear
8:34 PM 71.6 °F 66.2 °F 83% 29.92 in 10.0 mi NNW 3.5 mph - N/A   Clear
8:53 PM 69.8 °F 66.2 °F 88% 29.93 in 10.0 mi NNW 4.6 mph - N/A   Clear
9:14 PM 69.8 °F 66.2 °F 88% 29.93 in 10.0 mi North 5.8 mph - N/A   Clear
9:34 PM 69.8 °F 64.4 °F 83% 29.93 in 10.0 mi North 5.8 mph - N/A   Clear
9:54 PM 69.8 °F 64.4 °F 83% 29.94 in 10.0 mi North 6.9 mph - N/A   Clear
10:14 PM 69.8 °F 64.4 °F 83% 29.94 in 10.0 mi NNW 5.8 mph - N/A   Clear
10:34 PM 68.0 °F 64.4 °F 88% 29.93 in 10.0 mi NNW 6.9 mph - N/A   Clear
10:54 PM 66.2 °F 62.6 °F 88% 29.93 in 7.0 mi NNW 4.6 mph - N/A   Clear
11:14 PM 66.2 °F 62.6 °F 88% 29.94 in 7.0 mi NW 5.8 mph - N/A   Clear
11:34 PM 66.2 °F 62.6 °F 88% 29.94 in 7.0 mi NNW 3.5 mph - N/A   Clear
11:54 PM 66.2 °F 62.6 °F 88% 29.94 in 5.0 mi Calm Calm - N/A   Clear